Date String (YYYY-MM-DD hh:mm:ss) UTC,Instrument flags,Ambient pressure (hPa),Sample flow (lpm),Bypass flow (lpm),Sample temperature (°C),Ambient temperature (°C),ASC tube jacket temperature (°C),LED temperature (°C),Box temperature (°C),Sample RH (%),Span deviation,Mass concentration (μg/m³),Mass concentration (μg/m³),Mass concentration (μg/m³)
DateTimeUTC,F1_M11,P_M11,Q1_M11,Q2_M11,T1_M11,T2_M11,T3_M11,T4_M11,T5_M11,U1_M11,ZSPAN_M11,X2_M11,X0_M11,X1_M11
2021-12-13 14:00:00,,0825.1,4.99,0.00,22.3,21.5,00.0,31.5,24.0,06.4,0000.0,0001.27,0004.91,0000.69
2021-12-13 14:01:00,,0825.1,5.01,0.00,22.3,21.6,00.0,31.5,24.0,06.4,0000.0,0001.26,0006.46,0000.70
2021-12-13 14:02:00,,0825.2,4.99,0.00,22.3,21.6,00.0,31.4,24.0,06.4,0000.0,0001.23,0006.46,0000.70
2021-12-13 14:03:00,,0825.2,5.01,0.00,22.3,21.5,00.0,31.4,24.0,06.4,0000.0,0001.19,0005.43,0000.70
2021-12-13 14:04:00,,0825.1,4.99,0.00,22.3,21.5,00.0,31.4,24.0,06.5,0000.0,0001.17,0004.64,0000.71
2021-12-13 14:05:00,,0825.0,5.01,0.00,22.2,21.5,00.0,31.4,23.9,06.5,0000.0,0001.12,0004.59,0000.71
2021-12-13 14:06:00,,0825.0,5.00,0.00,22.2,21.4,00.0,31.4,23.9,06.5,0000.0,0001.11,0005.78,0000.71
2021-12-13 14:07:00,,0825.1,4.99,0.00,22.2,21.4,00.0,31.4,23.9,06.5,0000.0,0001.11,0005.99,0000.72
2021-12-13 14:08:00,,0825.1,5.02,0.00,22.2,21.4,00.0,31.3,23.9,06.5,0000.0,0001.10,0006.56,0000.71
2021-12-13 14:09:00,,0825.1,4.98,0.00,22.2,21.4,00.0,31.3,23.8,06.5,0000.0,0001.08,0007.18,0000.71
2021-12-13 14:10:00,,0825.1,5.01,0.00,22.1,21.4,00.0,31.3,23.8,06.5,0000.0,0001.07,0007.15,0000.71
2021-12-13 14:11:00,,0825.1,4.99,0.00,22.1,21.3,00.0,31.3,23.7,06.6,0000.0,0001.06,0006.35,0000.72
2021-12-13 14:12:00,,0825.2,5.00,0.00,22.1,21.3,00.0,31.3,23.7,06.6,0000.0,0001.07,0004.83,0000.72
2021-12-13 14:13:00,,0825.2,5.00,0.00,22.1,21.3,00.0,31.2,23.7,06.6,0000.0,0001.09,0004.87,0000.73
2021-12-13 14:14:00,,0825.2,5.00,0.00,22.0,21.3,00.0,31.2,23.7,06.6,0000.0,0001.12,0004.99,0000.73
2021-12-13 14:15:00,,0825.2,5.00,0.00,22.0,21.3,00.0,31.2,23.7,06.6,0000.0,0001.14,0005.04,0000.73
2021-12-13 14:16:00,,0825.2,5.00,0.00,22.0,21.3,00.0,31.2,23.7,06.6,0000.0,0001.15,0005.78,0000.73
2021-12-13 14:17:00,,0825.1,4.98,0.00,22.0,21.3,00.0,31.2,23.7,06.6,0000.0,0001.18,0005.19,0000.72
2021-12-13 14:18:00,,0825.1,5.00,0.00,22.0,21.3,00.0,31.1,23.7,06.7,0000.0,0001.16,0005.07,0000.71
2021-12-13 14:19:00,,0825.2,5.01,0.00,22.0,21.3,00.0,31.1,23.7,06.7,0000.0,0001.18,0004.64,0000.72
2021-12-13 14:20:00,,0825.2,4.99,0.00,22.0,21.3,00.0,31.1,23.7,06.7,0000.0,0001.21,0003.93,0000.72
2021-12-13 14:21:00,,0825.2,5.00,0.00,22.0,21.3,00.0,31.1,23.7,06.7,0000.0,0001.19,0003.85,0000.72
2021-12-13 14:22:00,,0825.2,5.01,0.00,22.0,21.3,00.0,31.1,23.7,06.7,0000.0,0001.21,0003.90,0000.72
2021-12-13 14:23:00,,0825.1,5.00,0.00,22.0,21.3,00.0,31.1,23.7,06.8,0000.0,0001.28,0004.17,0000.73
2021-12-13 14:24:00,,0825.0,5.00,0.00,22.0,21.3,00.0,31.1,23.7,06.8,0000.0,0001.34,0004.44,0000.74
2021-12-13 14:25:00,,0825.1,5.00,0.00,22.0,21.3,00.0,31.1,23.7,06.8,0000.0,0001.42,0004.74,0000.76
2021-12-13 14:26:00,,0825.1,4.99,0.00,22.0,21.3,00.0,31.1,23.7,06.8,0000.0,0001.42,0005.37,0000.78
2021-12-13 14:27:00,,0825.1,5.00,0.00,22.0,21.3,00.0,31.1,23.7,06.8,0000.0,0001.44,0004.53,0000.79
2021-12-13 14:28:00,,0825.1,5.02,0.00,22.0,21.3,00.0,31.1,23.7,06.8,0000.0,0001.46,0004.15,0000.81
2021-12-13 14:29:00,,0825.1,4.99,0.00,22.0,21.3,00.0,31.0,23.7,06.8,0000.0,0001.49,0004.68,0000.81
2021-12-13 14:30:00,,0825.1,5.00,0.00,22.0,21.3,00.0,31.0,23.6,06.8,0000.0,0001.50,0005.64,0000.82
2021-12-13 14:31:00,,0825.2,5.01,0.00,22.0,21.6,00.0,31.1,23.8,06.8,0000.0,0001.49,0005.93,0000.83
2021-12-13 14:32:00,,0825.2,4.99,0.00,22.2,22.3,00.0,31.1,24.0,06.8,0000.0,0001.52,0006.27,0000.84
2021-12-13 14:33:00,,0825.2,5.01,0.00,22.3,23.0,00.0,31.1,24.3,06.7,0000.0,0001.50,0006.24,0000.85
2021-12-13 14:34:00,,0825.1,4.99,0.00,22.4,22.9,00.0,31.2,24.4,06.7,0000.0,0001.47,0006.07,0000.86
2021-12-13 14:35:00,,0825.1,5.01,0.00,22.4,22.7,00.0,31.2,24.3,06.7,0000.0,0001.44,0005.92,0000.85
2021-12-13 14:36:00,,0825.1,4.99,0.00,22.4,22.5,00.0,31.2,24.3,06.7,0000.0,0001.39,0006.06,0000.85
2021-12-13 14:37:00,,0825.1,5.00,0.00,22.4,22.3,00.0,31.2,24.2,06.7,0000.0,0001.38,0005.62,0000.85
2021-12-13 14:38:00,,0825.1,5.00,0.00,22.4,22.2,00.0,31.3,24.2,06.8,0000.0,0001.40,0006.97,0000.86
2021-12-13 14:39:00,,0825.2,4.99,0.00,22.4,22.1,00.0,31.3,24.2,06.8,0000.0,0001.39,0006.82,0000.87
2021-12-13 14:40:00,,0825.2,5.00,0.00,22.4,22.1,00.0,31.3,24.2,06.7,0000.0,0001.41,0006.94,0000.87
2021-12-13 14:41:00,,0825.1,5.00,0.00,22.4,22.0,00.0,31.3,24.2,06.7,0000.0,0001.40,0005.50,0000.88
2021-12-13 14:42:00,,0825.2,5.00,0.00,22.4,22.0,00.0,31.3,24.2,06.7,0000.0,0001.40,0005.84,0000.88
2021-12-13 14:43:00,,0825.2,5.01,0.00,22.4,22.0,00.0,31.3,24.3,06.7,0000.0,0001.39,0005.42,0000.89
2021-12-13 14:44:00,,0825.2,5.00,0.00,22.5,22.0,00.0,31.3,24.3,06.7,0000.0,0001.39,0005.42,0000.90
2021-12-13 14:45:00,,0825.2,5.00,0.00,22.5,22.0,00.0,31.3,24.3,06.7,0000.0,0001.42,0005.59,0000.90
2021-12-13 14:46:00,,0825.2,5.02,0.00,22.5,22.0,00.0,31.4,24.3,06.7,0000.0,0001.43,0005.54,0000.90
2021-12-13 14:47:00,,0825.2,4.99,0.00,22.5,21.9,00.0,31.4,24.3,06.7,0000.0,0001.42,0005.20,0000.90
2021-12-13 14:48:00,,0825.2,4.99,0.00,22.5,21.9,00.0,31.4,24.2,06.7,0000.0,0001.45,0005.83,0000.90
2021-12-13 14:49:00,,0825.2,5.00,0.00,22.5,21.9,00.0,31.4,24.2,06.7,0000.0,0001.46,0005.35,0000.89
2021-12-13 14:50:00,,0825.2,5.01,0.00,22.5,21.9,00.0,31.4,24.3,06.7,0000.0,0001.46,0005.40,0000.88
2021-12-13 14:51:00,,0825.2,4.99,0.00,22.5,21.8,00.0,31.4,24.2,06.7,0000.0,0001.43,0005.23,0000.88
2021-12-13 14:52:00,,0825.3,4.99,0.00,22.4,21.8,00.0,31.4,24.1,06.8,0000.0,0001.44,0005.10,0000.87
2021-12-13 14:53:00,,0825.2,5.00,0.00,22.4,21.7,00.0,31.4,24.0,06.8,0000.0,0001.50,0005.46,0000.87
2021-12-13 14:54:00,,0825.2,5.01,0.00,22.4,21.7,00.0,31.4,24.0,06.8,0000.0,0001.55,0005.62,0000.87
2021-12-13 14:55:00,,0825.2,4.99,0.00,22.3,21.6,00.0,31.4,24.0,06.8,0000.0,0001.60,0005.90,0000.86
2021-12-13 14:56:00,,0825.2,5.01,0.00,22.3,21.6,00.0,31.4,23.9,06.8,0000.0,0001.62,0006.98,0000.87
2021-12-13 14:57:00,,0825.2,5.00,0.00,22.3,21.6,00.0,31.4,23.9,06.8,0000.0,0001.63,0007.01,0000.88
2021-12-13 14:58:00,,0825.2,4.99,0.00,22.3,21.5,00.0,31.3,23.9,06.9,0000.0,0001.63,0007.09,0000.88
2021-12-13 14:59:00,,0825.2,5.01,0.00,22.2,21.5,00.0,31.3,23.9,06.9,0000.0,0001.64,0007.91,0000.87
